Other Surface Observations
Issued by NWS

Home | Current Version | Previous Version | Text Only | Print | Product List | Glossary On
Versions: 1 2 3 4 5 6 7 8 9 10 11 12 13 14 15 16 17 18 19 20 21 22 23 24 25 26 27 28 29 30 31 32 33 34 35 36 37 38 39 40 41 42 43 44 45 46 47 48 49 50
952
SXUS52 KTAE 110318
OSOTAE
OSOTAE
North Florida/South Alabama/Southwest Georgia Weather Roundup
National Weather Service Tallahassee Florida
1000 PM EST WED FEB 10 2016

Note: "fair" indicates few or no clouds below 12,000 feet with no
significant weather and/or obstructions to visibility.

!FLZ017-115-028-034-025-110400
...North Florida...

CITY           SKY/WX    TMP DP  RH WIND       PRES   REMARKS
TALLAHASSEE    CLEAR     37  20  50 SW7       30.23F WCI  32
APALACHICOLA   CLEAR     36  29  75 CALM      30.26F
PERRY          CLEAR     33  24  71 CALM      30.26R
CROSS CITY       N/A     33  26  75 CALM      30.25S
JACKSONVILLE   CLEAR     34  25  69 SW5       30.23S WCI  30
$$

!FLZ112-006-005-002-011-110400
...Florida Panhandle...

CITY           SKY/WX    TMP DP  RH WIND       PRES   REMARKS
MARIANNA       CLEAR     37  22  54 SW3       30.22S
BONIFAY        FAIR      36  28  73 SW3       30.23S
PANAMA CITY NW FAIR      37  32  82 CALM      30.23F
TYNDALL AFB    CLEAR     39  30  71 MISG      30.24F
TYND DRONE APT FAIR      40  32  74 MISG      30.24F
DE FUNIAK SPR  FAIR      36  22  56 SW6       30.23S WCI  31
EGLIN AFB      CLEAR     43  28  55 W6        30.23S WCI  39
DESTIN         CLEAR     52  28  39 VRB3      30.24S
HURLBURT       CLEAR     45  27  48 W5        30.23S WCI  43
CRESTVIEW      CLEAR     32  25  75 CALM      30.24S
PENSACOLA      CLEAR     46  32  58 W7        30.24S WCI  42
$$

!ALZ063-066-110400
...South Alabama...

CITY           SKY/WX    TMP DP  RH WIND       PRES   REMARKS
DOTHAN         CLEAR     39  17  41 SW6       30.25R WCI  35
OZARK CAIRNS   CLEAR     38  19  46 W1        30.21R
FT RUCKER HELI CLEAR     33  23  66 CALM      30.21R
RUCKER HELI 3  FAIR      38  20  49 NW2       30.22R
RUCKER HELI 2  NOT AVBL
FLORALA APT    CLEAR     39  21  48 SW6       30.23S WCI  35
ANDALUSIA      CLEAR     42  19  39 W3        30.20S
TROY           CLEAR     33  24  69 CALM      30.21R
EUFALA         FAIR      30  22  72 CALM      30.20R
MOBILE         CLEAR     43  34  70 SW7       30.23F WCI  39
$$

!GAZ120>161-110400
...Southwest and South Central Georgia...

CITY           SKY/WX    TMP DP  RH WIND       PRES   REMARKS
THOMASVILLE    FAIR      34  25  69 CALM      30.23R
BAINBRIDGE     CLEAR     36  23  60 SW3       30.22F
MOODY AFB      CLEAR     38  17  43 SW3       30.20F
VALDOSTA       CLEAR     33  24  69 CALM      30.22F
MOULTRIE       CLEAR     37  21  52 CALM      30.21F
BLAKELY        CLEAR     36  30  80 CALM      30.22R
ALBANY         CLEAR     33  20  58 W3        30.22S
TIFTON         FAIR      37  21  52 SW3       30.19S
FITZGERALD     FAIR      37  19  48 CALM      30.21S
CORDELE        FAIR      39  16  39 CALM      30.20R
AMERICUS       FAIR      34  18  51 W3        30.20S
HOMERVILLE     FAIR      36  28  75 W5        30.22S WCI  32
$$

!GMZ750-755-770-775-110400
...Coastal and Buoy Obs...

STATION/POSITION TIME  TEMP    WIND        PRES    VSBY  WAVE
                       AIR SEA DIR/SP/G                  HT/PER
                 (UTC) (F)     (DEG/KT/KT) (MB)    (MI)  (FT/S)
KEATON BEACH     0300   44     360/  2/  3 1024.2R
CEDAR KEY        0300   48     300/  5/  6 1024.8F
C TOWER          NOT AVBL
APALACHICOLA BUO 0250   56 66  300/ 14/ 17 1025.2R         7/ 8
PANAMA CITY BUOY 0250   56 68  300/ 12/ 16 1025.5F         4/ 5
MOBILE BUOY      NOT AVBL
ORANGE BCH AL BU 0250   56 65  230/ 16/ 17 1023.6F         2/ 4
$$




USA.gov is the U.S. government's official web portal to all federal, state and local government web resources and services.